(54646) = 2000 SS291

Discovered at Socorro on 2000-09-27 by LINEAR.

Orbit

Orbit type: Jupiter Trojan

Note: WebGL enabled browser required.

epoch2023-09-13.0
epoch JD2460200.5
perihelion date2022-11-22.56891
perihelion JD2459906.06891
argument of perihelion (°)53.75782
ascending node (°)259.29716
inclination (°)3.56123
eccentricity0.1097557
perihelion distance (AU)4.6637654
Tisserand w.r.t. Jupiter3.0
ΔV w.r.t. Earth (km/sec)12.1
semimajor axis (AU)5.2387479
mean anomaly (°)24.20172
mean daily motion (°/day)0.08219830
aphelion distance (AU)5.814
period (years)11.99
P-vector [x]0.68116949
P-vector [y]-0.69006544
P-vector [z]-0.24457680
Q-vector [x]0.72957721
Q-vector [y]0.61195199
Q-vector [z]0.30533892
absolute magnitude12.7
phase slope0.15
uncertainty0
referenceMPEC 2024-A34
observations used759
oppositions23
arc length (days)9317
first opposition used1998
last opposition used2023
residual rms (arc-secs)0.64
perturbers coarse indicatorM-v
perturbers precise indicator003Ek
first observation date used1998-06-26.0
last observation date used2023-12-29.0
computer nameMPCLINUX
JD of orbit computation2456731.542376
perihelion JD uncertainty (days)2.5680E-04
argument of perihelion uncertainty (°)7.5982E-05
ascending node uncertainty (°)7.2780E-05
inclination uncertainty (°)3.7387E-06
eccentricity uncertainty 4.0441E-08
perihelion distance uncertainty (AU)2.1083E-07
Minimum Orbit Intersection Distances (in AU)
for orbit epoch: 2460200.5, reference: E2024-A34
Mercury4.23849
Venus3.93977
Earth3.65071
Mars3.27412
Jupiter0.34441
Saturn3.32967
Uranus12.7103
Neptune24.4166

Observations

766 total observations over interval: 1998 06 26.26250 – 2023 12 29.228122
These data are available for download (format description).

Date (UT) J2000 RA J2000 Dec Magn Location Ref
1998 06 26.26250 19 50 08.09 -18 36 34.2 18.6   809 – European Southern Observatory, La Silla MPS 39163
1998 06 26.27569 19 50 07.72 -18 36 34.7   809 – European Southern Observatory, La Silla MPS 39163
1998 06 26.28889 19 50 07.33 -18 36 35.3   809 – European Southern Observatory, La Silla MPS 39163
1999 09 07.28544 22 19 17.34 -05 42 55.1 19.0   704 – Lincoln Laboratory ETS, New Mexico MPS 39163
1999 09 07.29802 22 19 16.99 -05 42 57.9 19.7   704 – Lincoln Laboratory ETS, New Mexico MPS 39163
1999 09 07.31024 22 19 16.64 -05 42 58.5 19.1   704 – Lincoln Laboratory ETS, New Mexico MPS 39163
1999 09 07.32231 22 19 16.28 -05 43 01.9 19.9   704 – Lincoln Laboratory ETS, New Mexico MPS 39163
2000 09 27.25801 00 56 08.82 +10 23 23.0 19.2   704 – Lincoln Laboratory ETS, New Mexico MPS 20242
2000 09 27.27311 00 56 08.45 +10 23 19.4 19.4   704 – Lincoln Laboratory ETS, New Mexico MPS 20242
2000 09 27.28819 00 56 07.95 +10 23 16.6 19.4   704 – Lincoln Laboratory ETS, New Mexico MPS 20243
2000 09 27.31836 00 56 07.01 +10 23 11.0 19.5   704 – Lincoln Laboratory ETS, New Mexico MPS 20243
2000 10 03.34493 00 53 07.68 +10 04 15.1 19.4   704 – Lincoln Laboratory ETS, New Mexico MPS 20243
2000 10 03.35986 00 53 07.24 +10 04 13.0 19.6   704 – Lincoln Laboratory ETS, New Mexico MPS 20243
2000 10 03.37481 00 53 06.77 +10 04 10.0 19.5   704 – Lincoln Laboratory ETS, New Mexico MPS 20243
2000 10 03.38980 00 53 06.28 +10 04 08.6 20.1   704 – Lincoln Laboratory ETS, New Mexico MPS 20243
2000 10 05.35077 00 52 07.24 +09 57 40.8 19.8 V 691 – Steward Observatory, Kitt Peak-Spacewatch MPS 21400
2000 10 05.37300 00 52 06.55 +09 57 36.4 19.8 V 691 – Steward Observatory, Kitt Peak-Spacewatch MPS 21400
2000 10 05.39439 00 52 05.90 +09 57 32.0 19.8 V 691 – Steward Observatory, Kitt Peak-Spacewatch MPS 21400
2000 10 25.22719 00 42 34.79 +08 50 23.6 19.4   704 – Lincoln Laboratory ETS, New Mexico MPS 21400
2000 10 25.25487 00 42 33.90 +08 50 17.5 19.6   704 – Lincoln Laboratory ETS, New Mexico MPS 21400
2000 10 25.26936 00 42 33.56 +08 50 17.0 19.8   704 – Lincoln Laboratory ETS, New Mexico MPS 21400
2000 10 25.28312 00 42 33.15 +08 50 13.2 19.8   704 – Lincoln Laboratory ETS, New Mexico MPS 21400
2000 11 03.14796 00 39 01.60 +08 22 14.0 19.2   704 – Lincoln Laboratory ETS, New Mexico MPS 21400
2000 11 03.16164 00 39 01.30 +08 22 10.8 19.5   704 – Lincoln Laboratory ETS, New Mexico MPS 21400
2000 11 03.17627 00 39 01.02 +08 22 09.7 19.4   704 – Lincoln Laboratory ETS, New Mexico MPS 21400
2000 11 03.19064 00 39 00.69 +08 22 06.4 19.6   704 – Lincoln Laboratory ETS, New Mexico MPS 21400
2000 11 03.20435 00 39 00.32 +08 22 04.1 19.6   704 – Lincoln Laboratory ETS, New Mexico MPS 21400
2001 10 19.50783 03 21 07.85 +20 45 25.4 20.2   644 – Palomar Mountain/NEAT MPS 40232
2001 10 19.51832 03 21 07.54 +20 45 24.7 20.1   644 – Palomar Mountain/NEAT MPS 40232
2001 10 19.52893 03 21 07.26 +20 45 23.6 20.2   644 – Palomar Mountain/NEAT MPS 40232
2001 10 21.36471 03 20 17.40 +20 42 05.6 20.1   704 – Lincoln Laboratory ETS, New Mexico MPS 40232
2001 10 21.38105 03 20 16.91 +20 42 04.2 20.0   704 – Lincoln Laboratory ETS, New Mexico MPS 40232
2001 10 21.39739 03 20 16.42 +20 42 02.9 19.9   704 – Lincoln Laboratory ETS, New Mexico MPS 40232
2001 10 21.41374 03 20 16.06 +20 42 00.7 20.0   704 – Lincoln Laboratory ETS, New Mexico MPS 40232
2001 10 26.45539 03 17 51.24 +20 32 13.3 20.1   644 – Palomar Mountain/NEAT MPS 41830
2001 10 26.46595 03 17 50.91 +20 32 12.4 19.7   644 – Palomar Mountain/NEAT MPS 41830
2001 10 26.47637 03 17 50.60 +20 32 11.1 19.4   644 – Palomar Mountain/NEAT MPS 41830
2001 11 13.93038 03 08 04.51 +19 49 20.4 19.4 V 049 – Uppsala-Kvistaberg MPS 40232
2001 11 13.94351 03 08 04.10 +19 49 18.6 19.0 V 049 – Uppsala-Kvistaberg MPS 40232
2001 11 13.95647 03 08 03.72 +19 49 15.7 18.8 V 049 – Uppsala-Kvistaberg MPS 40232
2001 11 17.22630 03 06 17.96 +19 40 59.5 20.0   704 – Lincoln Laboratory ETS, New Mexico MPS 41830
2001 11 17.24064 03 06 17.50 +19 40 57.9 19.6   704 – Lincoln Laboratory ETS, New Mexico MPS 41830
2001 11 17.25503 03 06 17.03 +19 40 55.7 19.8   704 – Lincoln Laboratory ETS, New Mexico MPS 41830
2001 11 17.26941 03 06 16.55 +19 40 52.7 19.9   704 – Lincoln Laboratory ETS, New Mexico MPS 41830
2001 11 19.22285 03 05 14.25 +19 35 54.3 19.8   704 – Lincoln Laboratory ETS, New Mexico MPS 41830
2001 11 19.23776 03 05 13.77 +19 35 52.1 20.1   704 – Lincoln Laboratory ETS, New Mexico MPS 41830
2001 11 19.25263 03 05 13.25 +19 35 49.1 20.2   704 – Lincoln Laboratory ETS, New Mexico MPS 41830
2001 11 19.26734 03 05 12.78 +19 35 47.3 20.2   704 – Lincoln Laboratory ETS, New Mexico MPS 41830
2001 11 19.28205 03 05 12.31 +19 35 45.4 20.1   704 – Lincoln Laboratory ETS, New Mexico MPS 41830
2001 12 10.23001 02 55 26.76 +18 44 43.1 20.4   704 – Lincoln Laboratory ETS, New Mexico MPS 43518
2001 12 10.24551 02 55 26.36 +18 44 41.2 20.8   704 – Lincoln Laboratory ETS, New Mexico MPS 43518
2001 12 10.26077 02 55 26.07 +18 44 39.0 20.3   704 – Lincoln Laboratory ETS, New Mexico MPS 43518
2001 12 15.16258 02 53 41.97 +18 34 20.2 20.2   704 – Lincoln Laboratory ETS, New Mexico MPS 43518
2001 12 15.17996 02 53 41.62 +18 34 19.1 20.5   704 – Lincoln Laboratory ETS, New Mexico MPS 43518
2001 12 15.19742 02 53 41.27 +18 34 16.7 20.4   704 – Lincoln Laboratory ETS, New Mexico MPS 43518
2001 12 15.21253 02 53 41.01 +18 34 14.3 20.0   704 – Lincoln Laboratory ETS, New Mexico MPS 43518
2001 12 18.14657 02 52 46.56 +18 28 34.3 19.5   704 – Lincoln Laboratory ETS, New Mexico MPS 43518
2001 12 18.16207 02 52 46.32 +18 28 33.6 20.0   704 – Lincoln Laboratory ETS, New Mexico MPS 43518
2001 12 18.17828 02 52 45.99 +18 28 30.9 20.3   704 – Lincoln Laboratory ETS, New Mexico MPS 43518
2001 12 18.19346 02 52 45.65 +18 28 29.3 20.0   704 – Lincoln Laboratory ETS, New Mexico MPS 43518
2001 12 18.20866 02 52 45.42 +18 28 27.2 20.3   704 – Lincoln Laboratory ETS, New Mexico MPS 43518
2001 12 19.07572 02 52 30.60 +18 26 51.4 19.5   704 – Lincoln Laboratory ETS, New Mexico MPS 43518
2001 12 19.09090 02 52 30.33 +18 26 49.1 19.7   704 – Lincoln Laboratory ETS, New Mexico MPS 43518
2001 12 19.10620 02 52 30.01 +18 26 47.9 19.5   704 – Lincoln Laboratory ETS, New Mexico MPS 43518
2001 12 19.12139 02 52 29.78 +18 26 46.2 20.0   704 – Lincoln Laboratory ETS, New Mexico MPS 43518
2001 12 19.13659 02 52 29.45 +18 26 44.0 20.1   704 – Lincoln Laboratory ETS, New Mexico MPS 43518
2002 12 05.29126 05 24 01.44 +23 07 38.3 19.6   704 – Lincoln Laboratory ETS, New Mexico MPS 67748
2002 12 05.30674 05 24 00.70 +23 07 37.8 20.3   704 – Lincoln Laboratory ETS, New Mexico MPS 67748
2002 12 05.33746 05 23 59.64 +23 07 35.1 20.5   704 – Lincoln Laboratory ETS, New Mexico MPS 67748
2002 12 05.35276 05 23 59.10 +23 07 36.0 20.0   704 – Lincoln Laboratory ETS, New Mexico MPS 67748
2002 12 28.15493 05 11 19.73 +22 47 15.3 20.3 V 291 – LPL/Spacewatch II MPS 69704
2002 12 28.18441 05 11 18.77 +22 47 13.3 20.5 V 291 – LPL/Spacewatch II MPS 69704
2002 12 28.20962 05 11 17.95 +22 47 12.3 20.3 V 291 – LPL/Spacewatch II MPS 69704
2003 01 02.12487 05 08 50.45 +22 42 43.2 21.2 V 291 – LPL/Spacewatch II MPS 69704
2003 01 02.14995 05 08 49.77 +22 42 42.1 21.1 V 291 – LPL/Spacewatch II MPS 69704
2003 01 02.17490 05 08 49.07 +22 42 40.5 20.9 V 291 – LPL/Spacewatch II MPS 69704
2003 12 30.31041 07 24 01.77 +19 58 39.2 20.0   704 – Lincoln Laboratory ETS, New Mexico MPS 96275
2003 12 30.32316 07 24 01.35 +19 58 39.9 20.1   704 – Lincoln Laboratory ETS, New Mexico MPS 96275
2003 12 30.33509 07 24 00.98 +19 58 40.5 20.0   704 – Lincoln Laboratory ETS, New Mexico MPS 96275
2005 01 17.45143 09 13 29.73 +12 26 40.8 20.2 V 691 – Steward Observatory, Kitt Peak-Spacewatch MPS 125284
2005 01 17.48383 09 13 28.81 +12 26 43.9 20.4 V 691 – Steward Observatory, Kitt Peak-Spacewatch MPS 125284
2005 01 17.50918 09 13 28.10 +12 26 46.6 20.3 V 691 – Steward Observatory, Kitt Peak-Spacewatch MPS 125284
2005 03 10.179497 08 49 53.752 +14 05 20.52 20.45 V 645 – Apache Point-Sloan Digital Sky Survey MPS 389556
2005 03 10.182969 08 49 53.683 +14 05 20.89 21.30   645 – Apache Point-Sloan Digital Sky Survey MPS 389556
